Погода в Бандар-Сери-Бегаване

Бруней     4°55′46″N   114°55′06″E
темп.,
°C
ветер,
м/с
пор.,
м/с
влажн.,
%
обл.,
%
осадки,
мм/ч
давл.,
гПа
погр.,
м
4 августа, ср
ср423:00+27юз2275100 0.0 1012139
02:00+26ю2274100 0.0 1010126
05:00+25ю2276100 0.0 1010145
08:00+27ююз2274100 0.0 1012181
11:00+31зюз135447 0.0 1011738
14:00+32сз55585 0.0 1009930
17:00+30зсз56675 0.0 1008560
20:00+28з34745 0.0 1010364
5 августа, чт
чт523:00+27ююз22808 0.0 1012185
02:00+26ююз2383100 0.0 1010151
05:00+26ююз2486100 0.0 1010190
08:00+27ю238075 0.0 1012264
11:00+31юз135980 0.0 1011915
14:00+31сз556599 0.0 1008906
17:00+29зсз577892 1.8 1008461
20:00+28з3581100 5.3 1010305
6 августа, пт
пт623:00+27юз238399 3.3 1012158
02:00+26ю228665 4.8 1010110
05:00+26ююв338961 0.1 1010164
08:00+27ю238571 0.1 1012185
11:00+31юз236077 0.1 1011921
14:00+32сз4461100 0.1 1008961
17:00+29сз347791 0.3 1008328
20:00+28сз2279100 0.6 1010291
7 августа, сб
сб723:00+27юз1186100 2.3 1011147
02:00+27ююв2286100 2.3 1010199
05:00+27ююв2186100 0.8 1009125
08:00+27ю1184100 1.0 1011186
11:00+30с116885 0.0 1011664
14:00+30ссз436622 0.0 1009802
17:00+30сз457078 0.0 1008677
20:00+28ссз2375100 0.4 1010409
8 августа, вс
вс823:00+27св3382100 4.0 1012182
02:00+27в228216 5.9 1010324
05:00+26вюв228518 3.0 1010102
08:00+27юв338669 5.4 1012194
11:00+28ссв127748 4.3 1012268
14:00+30ссв226390 5.6 1010878
17:00+29ссв226752 0.0 1009614
20:00+28с1274100 0.0 1010289